Location: Corcelles
(46.1547°N, 4.7234°E)
Time: 08:42:21
(UTC+00:00)

Cosmos 2360 Rocket - Pass Details

Date: 14 July 2020
Orbit: 832 x 846 km, 71.0° (Epoch: 15 August)

Event Time Altitude Azimuth Distance (km) Brightness Sun altitude
Rises 03:16:35 0° 337° (NNW) 3,417 5.6 -7.3°
Reaches altitude 10° 03:19:12 10° 345° (NNW) 2,479 5.0 -7.0°
Maximum altitude 03:24:34 41° 55° (NE) 1,206 3.8 -6.3°
Drops below altitude 10° 03:29:54 10° 125° (SE) 2,464 4.8 -5.6°
Sets 03:32:29 0° 133° (SE) 3,394 5.5 -5.2°
